Weather Service Report


401 
ASHW40 PHFO 041843
RWRHI 

WEATHER ROUNDUP FOR HAWAII
NATIONAL WEATHER SERVICE HONOLULU HI
800 AM HST WED MAR 04 2015

THIS IS AN AUTOMATED REPORT THAT HAS NOT BEEN QUALITY CONTROLLED.

NOTE..."FAIR" INDICATES FEW OR NO CLOUDS BELOW 12,000 FEET WITH NO
SIGNIFICANT WEATHER AND/OR OBSTRUCTIONS TO VISIBILITY.

* - THESE SITES REPORT LIMITED FIELDS

HIZ001>004-041900-
KAUAI-NIIHAU-
  
CITY           SKY/WX    TMP DP  RH WIND       PRES   REMARKS
LIHUE APT      CLOUDY    72  61  68 N13       30.07R                  
PORT ALLEN*      N/A     68 N/A N/A NE7         N/A                   
POIPU*         NOT AVBL                                               
PRINCEVILLE*     N/A     70 N/A N/A MISG        N/A                   
KOKOLE POINT*  NOT AVBL                                               
MOLOAA DAIRY*  NOT AVBL                                               
WAIMEA HTS*    NOT AVBL                                               
PUU OPAE*        N/A     64  52  63 NE5G18      N/A                   
PUU LUA*       NOT AVBL                                               
MAKAHA RIDGE*  NOT AVBL                                               
$$

HIZ005>011-041900-
OAHU-
  
CITY           SKY/WX    TMP DP  RH WIND       PRES   REMARKS
HONOLULU       CLOUDY    74  62  66 N10G17    30.00R                  
KALAELOA       CLOUDY    72  63  73 NE9G22    30.01R                  
KANEOHE MCB    NOT AVBL                                               
WHEELER FIELD  PTSUNNY   68  64  88 NW9       30.05R                  
BELLOWS*         N/A    N/A N/A N/A N16G23      N/A                   
KAHUKU*          N/A    N/A N/A N/A N6G13       N/A                   
WHEELER*       NOT AVBL                                               
WAIANAE HARBOR NOT AVBL                                               
DILLINGHAM*      N/A     72  63  73 MISG        N/A                   
KAHUKU TRN*      N/A     66  61  82 NE8G18      N/A                   
KAWAILOA*        N/A     64  63  94 N9G18       N/A                   
KII*             N/A     72  64  78 N16G22      N/A                   
MAKUA RANGE*     N/A     72  64  78 E18G30      N/A                   
OAHU FOREST NW   N/A    N/A N/A N/A CALM        N/A                   
SCHOFIELD BRK*   N/A     66  64  94 MISG        N/A                   
SCHOFIELD S*   NOT AVBL                                               
WAIANAE VLY*     N/A     68  63  83 VRB10G33    N/A                   
KUAOKALA*        N/A     68  59  73 CALM        N/A                   
HONOULIUULI*   NOT AVBL                                               
MOKUOLOE IS*     N/A    N/A N/A N/A MISG        N/A                   
PALEHUA*         N/A     73  64  73 CALM        N/A                   
WAIAWA PHB*    NOT AVBL                                               
$$

HIZ012>013-041900-
MOLOKAI-
  
CITY           SKY/WX    TMP DP  RH WIND       PRES   REMARKS
MOLOKAI AIRPT  HVY RAIN  66  66 100 N12G20    30.03R FOG              
KALAUPAPA      NOT AVBL                                               
MAKAPULAPAI*     N/A     70  66  88 NE13G20     N/A                   
MOLOKAI 1*       N/A     61  61 100 VRB7G17     N/A                   
PUU ALII*        N/A     57  57 100 E2G10       N/A                   
$$

HIZ016-041900-
KAHOOLAWE-
  
CITY           SKY/WX    TMP DP  RH WIND       PRES   REMARKS
KAHOOLAWE*       N/A     66 N/A N/A NE7G13      N/A                   
HAKIOAWA*        N/A     67  67 100 MISG      30.43R                  
HONOKANAIA*      N/A     69  66  90 N8G15     30.01R                  
KANELOA*         N/A     72  72 100 MISG      29.18R                  
KEALIALALO*    NOT AVBL                                               
LUA MAKIKA*    NOT AVBL                                               
$$

HIZ014>015-041900-
LANAI-
  
CITY           SKY/WX    TMP DP  RH WIND       PRES   REMARKS
LANAI CITY     LGT RAIN  66  66 100 NE17G24   30.06R                  
LANAI 1*         N/A     66  66 100 NE20G32     N/A                   
$$

HIZ017>028-041900-
MAUI-
  
CITY           SKY/WX    TMP DP  RH WIND       PRES   REMARKS
KAHULUI        RAIN      70  66  88 NW13      30.01R                  
KAPALUA-W MAUI RAIN      68  68 100 NE14      30.01                   
HANA AIRPORT   LGT RAIN  68  68 100 S3        30.06R                  
HANA*            N/A     70 N/A N/A SE5         N/A                   
HALEAKALA SUMM   N/A     41  41 100 W6G20       N/A                   
MAALAEA BAY*   NOT AVBL                                               
HALEAKALA*     NOT AVBL                                               
KAUPO GAP*       N/A     61  55  82 N2G15       N/A                   
KULA 1*          N/A     48  46  93 E3          N/A                   
$$

HIZ023>026-041900-
BIG ISLAND OF HAWAII COAST AND LOWER SLOPES-
  
CITY           SKY/WX    TMP DP  RH WIND       PRES   REMARKS
KAILUA KONA    LGT RAIN  74  67  78 N5        29.94R                  
HILO           LGT RAIN  69  67  93 W7        30.00F FOG              
HONOKAA*       NOT AVBL                                               
KAWAIHAE MWT*    N/A     73 N/A N/A SE5         N/A                   
KAWAIHAE*        N/A     75 N/A N/A SW12        N/A                   
SOUTH POINT*     N/A     66 N/A N/A NE10G16     N/A                   
UPOLU AIRPORT*   N/A    N/A N/A N/A E20G31      N/A                   
KAMUELA*       CLOUDY    61  59  94 N17G29    30.06S                  
HAKALAU*         N/A     48  48 100 NE7G18      N/A                   
KALOKO-HONOKO*   N/A     72  68  88 E2        29.94R                  
PALI 2*          N/A     63  59  88 NE12G18     N/A                   
KEALAKOMO*       N/A     70  66  88 E3G13       N/A                   
KAUPULEHU*       N/A     68  61  77 E6G14       N/A                   
KAPAPALA*        N/A     65  64  98 CALM        N/A                   
LOWER KAHUKU*    N/A     61  61 100 NE1         N/A                   
PUHE CS*         N/A     73  70  88 E2          N/A                   
PUHO CS*         N/A     69  69  98 E2          N/A                   
PTA KEAMUKU*     N/A     61  57  88 CALM        N/A                   
WAIKOLOA*        N/A    N/A N/A N/A E10G16      N/A                   
$$

HIZ027>028-041900-
BIG ISLAND OF HAWAII INTERIOR AND SUMMMITS-
  
CITY           SKY/WX    TMP DP  RH WIND       PRES   REMARKS
BRADSHAW FIELD CLOUDY    54  50  87 SE9       30.25R                  
MK VISITOR CEN NOT AVBL                                               
MAUNA KEA*       N/A     28  28 100 SE12        N/A  WCI  18          
MAUNA LOA*       N/A     39  36  87 MISG        N/A                   
MAUNA LOA 1*   NOT AVBL                                               
PTA KIPUKA*      N/A     54  52  94 CALM        N/A                   
PTA RANGE 17*    N/A     55  52  88 E8          N/A                   
PTA WEST*        N/A     57  55  94 N3G9        N/A                   
NENE CABIN*      N/A     52  52 100 E5G12       N/A                   
AHUMOA*          N/A     53  49  87 NW1G10      N/A                   
PTA PORTABLE*  NOT AVBL                                               
PUU MALI*      NOT AVBL                                               
$$

HIC003-041900-
NORTHWEST ISLANDS-
  
CITY           SKY/WX    TMP DP  RH WIND       PRES   REMARKS
MIDWAY ISLAND  CLOUDY    61  46  59 E21       30.41R HAZE             
MIDWAY NOS*    NOT AVBL                                               
FRENCH FRIGATE NOT AVBL                                               
$$

PHZ110>124-180-041900-
BUOY REPORTS
  
STATION/POSITION TIME  TEMP    WIND        PRES    WAVE   SWELL
                       AIR SEA DIR/SP/G            HT/PER HT/DIR
                 (UTC) (F)     (DEG/KT/KT) (MB)    (FT/S) (FT/D)
BUOY 51001       NOT AVBL
BUOY 51101       1800   66 71  360/ 19/ 23 1020.0R   9/ 8   5/320
BUOY 51100       1800   72 74   10/ 12/ 16 1015.5R
BUOY 51003       1800   76 78   40/ 17/ 21 1014.9R   8/ 8   5
BUOY 51004       1728   77 78  100/ 14/ 17 1012.8R   9/10   8/ 80
BARBERS PT BUOY  NOT AVBL
WAIMEA BAY BUOY  1800      77                N/A     7/10
KAILUA BAY BUOY  1800      77                N/A     7/10   3/ 40
LANAI BUOY       1800      76                N/A     3/13   2/180
BARBERS PT 2     1800      77                N/A     3/14   2/170
PAUWELA MAUI     1800      75                N/A    10/10   5/ 60
HILO             1800      77                N/A    10/11   5/ 40
KANEOHE BAY BUOY 1800      77                N/A     7/10   3/ 40
HANALEI KAUAI    NOT AVBL
KAHULUI HARBOR   1800   70 77  330/ 15/ 17 1016.2R
HONOLULU HARBOR  1800   74 76  350/  2/  7 1015.8R
KILO NALU        NOT AVBL
HILO HARBOR      1800   69 77  250/  6/  9 1015.7F
MOKUOLOE         1800   74 76   10/ 13/ 16 1016.5R
NAWILIWILI       1800   71 76  350/  7/ 12 1017.8R
WHOTS BUOY       NOT AVBL
BUOY 51028       NOT AVBL
$$

......................KEY........................................
  SKY/WX - SKY CONDITIONS/PRESENT WEATHER
  TMP    - TEMPERATURE IN FAHRENHEIT
  DWPT   - DEWPOINT IN FAHRENHEIT
  RH     - RELATIVE HUMIDITY IN PERCENT
  WIND   - DIRECTION AND SPEED /MPH FOR ISLANDS...KTS FOR BUOYS/
  PRES   - MEAN SEA LEVEL PRESSURE IN INCHES OF HG
  VSB    - VISIBILITY IN MILES
  HX     - HEAT INDEX
  WCI    - WIND CHILL INDEX
  VRB    - VARIABLE WIND DIRECTION
  N/A    - NOT AVAILABLE

Return to Home page


Western Regional Climate Center, wrcc@dri.edu